[[{"header":{"parameterUnit":"m.s-1","parameterCategory":1,"la1":30.2991,"la2":30.254,"lo1":-89.0895,"lo2":-89.0444,"dy":0.0017,"dx":0.0017,"nx":28,"ny":28,"refTime":"2025-07-29T03:00:00:Z","depth":0,"parameterNumber":2,"parameterNumberName":"U-component_of_WINDS"},"data":[0,0,0,0,0,0,0,0,0,0,0,0,0,0,0,0,0,0,0,0,0,0,0,0,0,0,0,0,0,0,0,0,0,0,0,0,0,0,0,0,0,0,0,0,0,0,0,0,0,0,0,0,0,0,0,0,0,0,0.7647,0.7647,0,0.7691,0.7691,0.7692,0.7684,0.7683,0.7682,0.7681,0.7728,0.7729,0.7731,0,0,0,0,0,0,0,0,0,0,0,0,0,0.7558,0.756,0.7647,0.7647,0.7648,0.7691,0.7692,0.7692,0.7684,0.7683,0.7682,0.7681,0.7727,0.7729,0.7732,0,0,0,0,0,0,0,0,0,0,0,0,0,0.7599,0.756,0.7647,0.7649,0.765,0.7691,0.7692,0.7692,0.7684,0.7683,0.7682,0.7681,0.7726,0.7729,0.7732,0.7774,0,0,0.7741,0.7742,0,0,0,0,0,0,0,0,0.7597,0.7602,0.7648,0.7649,0.765,0.7681,0.7677,0.772,0.7684,0.7671,0.7681,0.768,0.7713,0.7717,0.7728,0.7776,0.7778,0.7741,0.7743,0.7744,0.7745,0,0,0,0,0,0,0,0.7594,0.76,0.7664,0.7649,0.765,0.7649,0.7653,0.7685,0.7698,0.7672,0.7672,0.7677,0.7713,0.7725,0.7729,0.7779,0.7741,0.7744,0.7745,0.7747,0.7866,0.7867,0,0,0,0,0,0,0.759,0.7598,0.7663,0.7666,0.762,0.7651,0.7656,0.7672,0.7698,0.7701,0.7678,0.7676,0.7721,0.7725,0.773,0.7783,0.7744,0.7747,0.7749,0.7865,0.7866,0.7868,0,0,0,0,0,0,0.7588,0.7596,0.7661,0.7632,0.764,0.7654,0.7672,0.7673,0.7685,0.7702,0.7705,0.7688,0.772,0.7726,0.7764,0.7785,0.7748,0.7751,0.7863,0.7865,0.7867,0.7888,0,0,0,0,0,0,0.7586,0.7595,0.7611,0.7632,0.7642,0.7693,0.7673,0.7675,0.769,0.7689,0.7712,0.7714,0.7719,0.7759,0.7767,0.7788,0.7753,0.7861,0.7864,0.7866,0.7886,0.7891,0.7895,0,0,0,0,0,0.7582,0.7614,0.7611,0.7619,0.7661,0.7694,0.77,0.7705,0.7692,0.7708,0.7719,0.7714,0.7781,0.7763,0.7771,0.7794,0.786,0.7863,0.7866,0.7883,0.789,0.7895,0,0,0,0,0,0,0.7595,0.7617,0.7614,0.7654,0.7672,0.7693,0.7713,0.771,0.7733,0.7731,0.7736,0.7741,0.778,0.779,0.777,0.7837,0.7819,0.7824,0.7829,0.7835,0.784,0.7837,0.7756,0,0,0,0,0,0.7603,0.7627,0.7645,0.7679,0.7688,0.7699,0.7714,0.7716,0.7735,0.7743,0.7757,0.7776,0.7802,0.7819,0.7843,0.7886,0.7893,0.7906,0.7911,0.7915,0.7919,0.7946,0.7953,0.7878,0.7878,0.7878,0,0,0.7618,0.7633,0.7648,0.7682,0.7696,0.7723,0.7706,0.7734,0.7754,0.7747,0.7784,0.7795,0.7817,0.7858,0.7877,0.7868,0.7941,0.7919,0.7922,0.7924,0.795,0.7957,0.7963,0.788,0.788,0.788,0,0,0.7661,0.7674,0.7704,0.7719,0.7741,0.7749,0.7756,0.7777,0.7785,0.7821,0.7818,0.7842,0.7885,0.7902,0.7916,0.7966,0.7963,0.7974,0.7999,0.8025,0.8031,0.8036,0.8056,0.8063,0.7978,0.7978,0.7978,0,0.7678,0.7717,0.772,0.775,0.7765,0.776,0.7792,0.7807,0.7836,0.7847,0.7837,0.7893,0.7907,0.7953,0.7966,0.7976,0.7987,0.7972,0.8029,0.8035,0.804,0.8059,0.8066,0.798,0.798,0.7979,0.7979,0,0.7738,0.7765,0.7787,0.7816,0.7834,0.7864,0.7873,0.7891,0.7892,0.7901,0.7939,0.7956,0.7985,0.7996,0.7996,0.8043,0.8037,0.8028,0.801,0.8048,0.8067,0.8074,0.7982,0.7981,0.7981,0.798,0,0,0.779,0.7821,0.7829,0.7843,0.7868,0.789,0.792,0.7948,0.7965,0.7985,0.8012,0.805,0.8042,0.8058,0.806,0.8083,0.8124,0.8071,0.8072,0.8082,0.8179,0.8188,0.8196,0.8122,0.8123,0.8124,0.8178,0,0.7837,0.7891,0.7896,0.7945,0.7971,0.7967,0.7994,0.8013,0.8022,0.8047,0.8057,0.8085,0.8071,0.8081,0.8102,0.8115,0.8144,0.8111,0.8149,0.815,0.8145,0.8205,0.8214,0.8265,0.8185,0.8186,0.8187,0,0.7899,0.7922,0.7973,0.7996,0.8007,0.8032,0.8059,0.8082,0.8103,0.8109,0.8127,0.8127,0.816,0.814,0.8187,0.8164,0.8179,0.8188,0.819,0.8195,0.8172,0.8215,0.828,0.8289,0.8198,0.8197,0.8197,0,0.7935,0.7978,0.8016,0.8027,0.8054,0.8072,0.8084,0.8104,0.8121,0.8145,0.8157,0.8184,0.8199,0.8221,0.8229,0.8213,0.8276,0.8256,0.8283,0.8283,0.8298,0.8297,0.837,0.8305,0.8304,0.8304,0.8304,0,0.7988,0.8021,0.8033,0.8056,0.8093,0.8098,0.8134,0.8145,0.8164,0.819,0.8188,0.8212,0.822,0.8247,0.8253,0.8292,0.8299,0.8305,0.8307,0.8307,0.8306,0.8319,0.8316,0.8306,0.8306,0.8305,0.8305,0,0.8035,0.8044,0.8085,0.8107,0.8114,0.814,0.8159,0.8183,0.8191,0.8225,0.8233,0.8247,0.8278,0.8288,0.8325,0.833,0.8376,0.8374,0.8369,0.837,0.8398,0.8396,0.8482,0.8495,0.8419,0.842,0.8421,0,0.807,0.8095,0.812,0.8137,0.815,0.8177,0.8195,0.8202,0.8221,0.8248,0.8268,0.8299,0.8324,0.8375,0.8389,0.8418,0.8418,0.8446,0.8422,0.8422,0.8421,0.842,0.8424,0.8451,0.8452,0.8452,0.8453,0,0.8131,0.8134,0.816,0.8187,0.8209,0.8231,0.8252,0.8267,0.8276,0.8298,0.833,0.8349,0.8388,0.842,0.8449,0.8463,0.8461,0.846,0.8468,0.847,0.8467,0.8471,0.8384,0.8458,0.8458,0.8457,0.8457,0.8457,0.8174,0.8197,0.8219,0.8248,0.8265,0.8285,0.8308,0.832,0.8347,0.8379,0.8381,0.8416,0.8439,0.8479,0.8494,0.8522,0.8514,0.8526,0.8529,0.8532,0.8536,0.8461,0.8527,0.8527,0.8527,0.8527,0.8527,0,0.8237,0.8251,0.8278,0.8308,0.8331,0.8326,0.8349,0.837,0.8401,0.8422,0.8447,0.8485,0.8516,0.8532,0.8563,0.8583,0.8583,0.8591,0.8591,0.8595,0.854,0.8531,0.8591,0.8591,0.8591,0.8591,0.8591,0.8591,0.8273,0.8312,0.8319,0.8367,0.838,0.8415,0.8429,0.8449,0.8466,0.8508,0.8534,0.8544,0.8564,0.8597,0.8625,0.863,0.8642,0.8652,0.8656,0.8605,0.8598,0.8592,0.8584,0.8654,0.8654,0.8709,0.8709,0.8709]},{"header":{"parameterUnit":"m.s-1","parameterCategory":1,"la1":30.2991,"la2":30.254,"lo1":-89.0895,"lo2":-89.0444,"dy":0.0017,"dx":0.0017,"nx":28,"ny":28,"refTime":"2025-07-29T03:00:00:Z","depth":0,"parameterNumber":3,"parameterNumberName":"V-component_of_WINDS"},"data":[0,0,0,0,0,0,0,0,0,0,0,0,0,0,0,0,0,0,0,0,0,0,0,0,0,0,0,0,0,0,0,0,0,0,0,0,0,0,0,0,0,0,0,0,0,0,0,0,0,0,0,0,0,0,0,0,0,0,-2.5531,-2.553,0,-2.5473,-2.5472,-2.5471,-2.5495,-2.5496,-2.5497,-2.5499,-2.5434,-2.5431,-2.5428,0,0,0,0,0,0,0,0,0,0,0,0,0,-2.5657,-2.5655,-2.5531,-2.553,-2.5529,-2.5473,-2.5472,-2.5471,-2.5494,-2.5496,-2.5498,-2.5499,-2.5435,-2.5431,-2.5428,0,0,0,0,0,0,0,0,0,0,0,0,0,-2.5601,-2.5654,-2.5531,-2.5534,-2.5534,-2.5473,-2.5472,-2.5471,-2.5494,-2.5496,-2.5498,-2.55,-2.5436,-2.5432,-2.5427,-2.5358,0,0,-2.5413,-2.5411,0,0,0,0,0,0,0,0,-2.5604,-2.5596,-2.5534,-2.5534,-2.5533,-2.5493,-2.5493,-2.5433,-2.5493,-2.5509,-2.5499,-2.5501,-2.5451,-2.5446,-2.543,-2.5355,-2.5352,-2.5413,-2.541,-2.5408,-2.5407,0,0,0,0,0,0,0,-2.5608,-2.5599,-2.5508,-2.5533,-2.5533,-2.5537,-2.5531,-2.5482,-2.5469,-2.5508,-2.5509,-2.5502,-2.5452,-2.5435,-2.5429,-2.5351,-2.5413,-2.5409,-2.5406,-2.5405,-2.5216,-2.5214,0,0,0,0,0,0,-2.5613,-2.5602,-2.5509,-2.5506,-2.5575,-2.5533,-2.5527,-2.5504,-2.547,-2.5467,-2.5501,-2.5504,-2.5441,-2.5434,-2.5427,-2.5344,-2.5408,-2.5404,-2.5401,-2.5219,-2.5216,-2.5213,0,0,0,0,0,0,-2.5615,-2.5604,-2.5512,-2.5554,-2.5543,-2.5529,-2.5503,-2.5502,-2.5485,-2.5465,-2.5462,-2.5486,-2.5443,-2.5433,-2.5375,-2.5342,-2.5402,-2.5398,-2.5221,-2.5218,-2.5215,-2.5177,0,0,0,0,0,0,-2.5619,-2.5605,-2.5579,-2.5554,-2.5541,-2.5462,-2.5501,-2.5499,-2.5477,-2.5481,-2.545,-2.5447,-2.5443,-2.5382,-2.5371,-2.5337,-2.5394,-2.5224,-2.522,-2.5216,-2.5181,-2.5173,-2.5165,0,0,0,0,0,-2.5623,-2.557,-2.5578,-2.5567,-2.5509,-2.5461,-2.5453,-2.5452,-2.5475,-2.5448,-2.5435,-2.5448,-2.5347,-2.5376,-2.5363,-2.5327,-2.5226,-2.5221,-2.5216,-2.5185,-2.5174,-2.5166,0,0,0,0,0,0,-2.5589,-2.5566,-2.5575,-2.5512,-2.5488,-2.5465,-2.5431,-2.5441,-2.5408,-2.5413,-2.5411,-2.5404,-2.5345,-2.533,-2.5362,-2.5259,-2.529,-2.5282,-2.527,-2.526,-2.5253,-2.5257,-2.5391,0,0,0,0,0,-2.5575,-2.554,-2.5521,-2.5467,-2.5455,-2.5445,-2.5424,-2.5425,-2.54,-2.5389,-2.5372,-2.5346,-2.5309,-2.5284,-2.5248,-2.5179,-2.5173,-2.5149,-2.5141,-2.5134,-2.5127,-2.509,-2.5079,-2.5197,-2.5197,-2.5197,0,0,-2.5544,-2.5527,-2.5504,-2.546,-2.5441,-2.5403,-2.5436,-2.5394,-2.5366,-2.5382,-2.5328,-2.5314,-2.5284,-2.5221,-2.5192,-2.5207,-2.5094,-2.5128,-2.5123,-2.5119,-2.5084,-2.5073,-2.5063,-2.5193,-2.5194,-2.5194,0,0,-2.5469,-2.5452,-2.5406,-2.5388,-2.5361,-2.5355,-2.5344,-2.5319,-2.5311,-2.5257,-2.5269,-2.5234,-2.517,-2.5148,-2.5129,-2.5047,-2.5057,-2.5035,-2.4994,-2.4958,-2.4948,-2.494,-2.4911,-2.49,-2.5028,-2.5028,-2.5028,0,-2.5433,-2.5378,-2.5381,-2.5338,-2.5318,-2.5334,-2.5286,-2.5268,-2.523,-2.5215,-2.5233,-2.5153,-2.5134,-2.5066,-2.5046,-2.503,-2.5017,-2.5038,-2.495,-2.4942,-2.4934,-2.4906,-2.4895,-2.5026,-2.5026,-2.5026,-2.5027,0,-2.5336,-2.5297,-2.5263,-2.5228,-2.5204,-2.5159,-2.5154,-2.5129,-2.5133,-2.5125,-2.5069,-2.5047,-2.5008,-2.4992,-2.4994,-2.4924,-2.4934,-2.4951,-2.4982,-2.492,-2.4894,-2.4883,-2.5022,-2.5023,-2.5024,-2.5025,0,0,-2.5236,-2.5205,-2.5192,-2.5177,-2.5149,-2.5118,-2.5074,-2.5038,-2.5016,-2.4989,-2.4952,-2.4898,-2.4914,-2.4892,-2.4892,-2.486,-2.4797,-2.4881,-2.488,-2.4866,-2.4719,-2.4706,-2.4694,-2.4804,-2.4802,-2.48,-2.4721,0,-2.5158,-2.5083,-2.5084,-2.5014,-2.4978,-2.4993,-2.4955,-2.4933,-2.4924,-2.4892,-2.4882,-2.4844,-2.4867,-2.4854,-2.4824,-2.4811,-2.4767,-2.4817,-2.4768,-2.4766,-2.4775,-2.468,-2.4666,-2.4593,-2.4711,-2.4709,-2.4708,0,-2.5057,-2.503,-2.4956,-2.4934,-2.4919,-2.4885,-2.4852,-2.4821,-2.4797,-2.4793,-2.4769,-2.4775,-2.4729,-2.4762,-2.4699,-2.4733,-2.4713,-2.4703,-2.4701,-2.4695,-2.4733,-2.4672,-2.4569,-2.4558,-2.4692,-2.4693,-2.4694,0,-2.4991,-2.4936,-2.4885,-2.4871,-2.4845,-2.482,-2.4808,-2.4785,-2.4764,-2.4735,-2.472,-2.4686,-2.4666,-2.4639,-2.4634,-2.4659,-2.4571,-2.4604,-2.4565,-2.4565,-2.4545,-2.4546,-2.4437,-2.4533,-2.4533,-2.4533,-2.4533,0,-2.4904,-2.4858,-2.4856,-2.4824,-2.4773,-2.4775,-2.4724,-2.4714,-2.4694,-2.466,-2.467,-2.4638,-2.4635,-2.4601,-2.4597,-2.4545,-2.4536,-2.4531,-2.453,-2.453,-2.453,-2.4516,-2.4521,-2.453,-2.4531,-2.4531,-2.4532,0,-2.4822,-2.4818,-2.4764,-2.4744,-2.4738,-2.4702,-2.4684,-2.4653,-2.4647,-2.4604,-2.4593,-2.4582,-2.4543,-2.4537,-2.449,-2.4488,-2.4425,-2.443,-2.4434,-2.4435,-2.4397,-2.44,-2.4274,-2.4258,-2.4365,-2.4364,-2.4363,0,-2.4766,-2.4732,-2.4709,-2.4688,-2.4675,-2.4641,-2.462,-2.462,-2.4597,-2.4568,-2.454,-2.4503,-2.4473,-2.441,-2.4396,-2.4361,-2.4365,-2.4323,-2.4359,-2.436,-2.4364,-2.4366,-2.4362,-2.4316,-2.4315,-2.4314,-2.4313,0,-2.4668,-2.4668,-2.4638,-2.4608,-2.4583,-2.4558,-2.4535,-2.4516,-2.4514,-2.4487,-2.4449,-2.4426,-2.438,-2.4342,-2.4307,-2.4293,-2.4302,-2.4302,-2.4291,-2.429,-2.4294,-2.4291,-2.4415,-2.4304,-2.4305,-2.4306,-2.4306,-2.4307,-2.4597,-2.4568,-2.4548,-2.4514,-2.4497,-2.4476,-2.4446,-2.4437,-2.4406,-2.4369,-2.4371,-2.4329,-2.4305,-2.426,-2.4243,-2.4209,-2.4222,-2.4207,-2.4203,-2.4199,-2.4195,-2.43,-2.4203,-2.4203,-2.4203,-2.4203,-2.4204,0,-2.4499,-2.4488,-2.4457,-2.4425,-2.4399,-2.4412,-2.4388,-2.4364,-2.4327,-2.4305,-2.4276,-2.4232,-2.4196,-2.4181,-2.4145,-2.4121,-2.4124,-2.4112,-2.4113,-2.411,-2.4185,-2.4198,-2.411,-2.411,-2.411,-2.411,-2.411,-2.411,-2.4445,-2.4396,-2.4394,-2.4337,-2.4326,-2.4286,-2.427,-2.425,-2.4233,-2.4184,-2.4155,-2.4146,-2.4127,-2.4091,-2.4058,-2.4054,-2.404,-2.4026,-2.4024,-2.4095,-2.4104,-2.4113,-2.4125,-2.4023,-2.4023,-2.3951,-2.395,-2.395]}]]